"Pseudo-MPEC" for ZTF01nQ

Created 2019 Mar 31 17:41:38 UT using Find_Orb

Click here for an explanation of pseudo-MPECs

 
 Astrometry: 
     ZTF01nQ  C2018 11 12.32087303 52 23.64 +25 32 06.7          15.15RUNEOCPI41
     ZTF01nQ  C2018 11 12.32122003 52 28.98 +25 33 05.7          15.15RUNEOCPI41
     ZTF01nQ  C2018 11 12.41127404 17 56.02 +29 36 16.1          16.43gUNEOCPI41
     ZTF01nQ  C2018 11 12.41162104 18 02.83 +29 37 10.6          16.43gUNEOCPI41
     ZTF01nQ  C2018 11 12.41173304 18 04.99 +29 37 28.7          16.52gUNEOCPI41
     ZTF01nQ  C2018 11 12.41208104 18 11.76 +29 38 21.9          16.52gUNEOCPI41

Station data:
(I41) Palomar Mountain--ZTF  (N33.357340 W116.859780)  US/California. 1.2-m
   f/2.44 Oschin Schmidt + CCD.

Orbital elements:  ZTF01nQ
   Perigee 2018 Nov 11.418058 +/- 0.243 TT = 10:02:00 (JD 2458433.918058)
Epoch 2018 Nov 12.0 TT = JDT 2458434.5                        Gray
M 149.14895030 +/- 31               (J2000 equator)
n 256.29516703 +/- 47.2             Peri.  209.09401 +/- 7
a 52979.7488 +/- 6496               Node    19.31106 +/- 0.59
e   0.6212789 +/- 0.0585            Incl.   38.45900 +/- 0.36
P2022.63m/1.405d           H 31.8   G  0.15   U 15.3  
q 20064.5441 +/- 5618    Q 85894.9535 +/- 8932
From 6 observations 2018 Nov. 12 (2.2 hr); mean residual 0".458
Residuals in arcseconds: 
181112 I41 .652- .397-    181112 I41 .628- .513-    181112 I41 .124+ .698+    
181112 I41 .658+ .400+    181112 I41 .333+ .015+    181112 I41 .165+ .204-    

Ephemerides (geocentric):
Date (UTC) HH   RA              Dec         delta  elong  mag " sig PA
---- -- -- --  -------------   -----------  ------ -----  --- ---- ---
2018 11 12 00  02 20 17.459   +12 10 38.13   84097 167.4 16.3 3963  66
2018 11 12 01  02 31 07.182   +14 07 31.73   85134 170.6 16.2 2757  70
2018 11 12 02  02 41 55.344   +16 00 24.22   85732 173.6 16.0 1897  76
2018 11 12 03  02 52 49.856   +17 50 15.00   85892 176.4 Sha  1294  83
2018 11 12 04  03 03 58.730   +19 37 55.22   85618 177.7 Sha   883  92
2018 11 12 05  03 15 30.570   +21 24 09.69   84906 175.8 17.6  607 103
2018 11 12 06  03 27 35.105   +23 09 38.01   83753 172.9 16.0  419 113
2018 11 12 07  03 40 23.868   +24 54 54.96   82149 169.6 16.1  276 125
2018 11 12 08  03 54 11.108   +26 40 29.70   80082 166.1 16.2  154 147
2018 11 12 09  04 09 15.103   +28 26 43.31   77537 162.4 16.3  136  41
2018 11 12 10  04 26 00.126   +30 13 43.14   74493 158.4 16.3  372  75
2018 11 12 11  04 44 59.520   +32 01 10.86   70925 154.1 16.3  847  80
2018 11 12 12  05 07 00.637   +33 47 57.51   66800 149.2 16.3 1731  81
2018 11 12 13  05 33 12.983   +35 31 09.99   62081 143.6 16.3 3391  82
2018 11 12 14  06 05 21.779   +37 04 11.07   56725 137.0 16.3 6579  85
2018 11 12 15  06 46 09.914   +38 11 56.31   50685 128.9 16.3 217'  89
2018 11 12 16  07 39 48.863   +38 19 10.17   43930 118.4 16.3 456'  96
2018 11 12 17  08 52 21.635   +36 00 19.90   36500 103.8 16.4  18d 106
2018 11 12 18  10 30 58.231   +27 46 53.60   28724  81.5 16.7  49d 118
2018 11 12 19  12 43 15.197   +06 41 03.37   22038  43.8 19??  93d 128
2018 11 12 20  15 48 27.815   -25 57 43.93   20360  12.0 27??  81d 119
2018 11 12 21  19 27 08.384   -38 25 29.49   25350  58.9 17??  56d  88
2018 11 12 22  21 43 45.919   -32 29 54.05   32935  87.1 16.8  40d  68
2018 11 12 23  22 55 30.552   -24 42 21.31   40601 104.6 16.6  32d  59
2018 11 13 00  23 39 22.826   -18 11 12.05   47680 116.7 16.5  27d  55
2018 11 13 01  00 10 06.414   -12 53 41.85   54047 125.7 16.5  24d  53
2018 11 13 02  00 33 41.468   -08 30 32.78   59711 132.9 16.5  22d  52
2018 11 13 03  00 52 58.033   -04 46 36.40   64716 138.9 16.5  20d  51
2018 11 13 04  01 09 27.072   -01 31 24.29   69107 144.1 16.5  19d  51
2018 11 13 05  01 24 02.226   +01 22 16.83   72925 148.7 16.5  18d  51
2018 11 13 06  01 37 17.688   +03 59 32.46   76204 152.9 16.5  17d  51
2018 11 13 07  01 49 36.741   +06 24 04.23   78974 156.7 16.5  17d  51
2018 11 13 08  02 01 16.205   +08 38 37.56   81255 160.3 16.4 987'  52
2018 11 13 09  02 12 28.934   +10 45 19.42   83068 163.7 16.4 976'  52
2018 11 13 10  02 23 25.330   +12 45 49.87   84424 167.0 16.3 975'  53
2018 11 13 11  02 34 14.318   +14 41 29.78   85335 170.1 16.2 982'  54
2018 11 13 12  02 45 04.040   +16 33 26.16   85807 173.1 16.1  17d  55
2018 11 13 13  02 56 02.398   +18 22 35.83   85843 175.8 17.0  17d  55
2018 11 13 14  03 07 17.532   +20 09 47.96   85444 177.3 Sha   18d  57
2018 11 13 15  03 18 58.319   +21 55 45.76   84607 175.9 18.7  19d  58
2018 11 13 16  03 31 14.943   +23 41 07.41   83325 173.0 16.0  20d  59
2018 11 13 17  03 44 19.623   +25 26 26.13   81590 169.8 16.1  22d  60
2018 11 13 18  03 58 27.627   +27 12 08.98   79388 166.3 16.2  25d  62
2018 11 13 19  04 13 58.736   +28 58 33.69   76702 162.6 16.2  30d  64
2018 11 13 20  04 31 19.481   +30 45 41.53   73510 158.5 16.3  37d  66
2018 11 13 21  04 51 06.648   +32 33 02.54   69786 154.0 16.3  49d  69
2018 11 13 22  05 14 12.973   +34 19 04.45   65495 148.9 16.3  77d  72
2018 11 13 23  05 41 56.565   +36 00 05.27   60598 143.1 16.3 140d  76
2018 11 14 00  06 16 16.544   +37 27 40.25   55050 136.1 16.3 156d  81
2018 11 14 01  07 00 17.742   +38 22 35.27   48807 127.4 16.3 131d  88
2018 11 14 02  07 58 42.368   +37 59 24.50   41850 116.0 16.3 125d  97
2018 11 14 03  09 18 00.973   +34 27 11.85   34266  99.7 16.4 130d 109
2018 11 14 04  11 05 21.281   +23 21 04.43   26572  73.9 16.9 148d 122
2018 11 14 05  13 29 49.949   -02 31 32.44   20837  30.4 20?? 175d 124
2018 11 14 06  16 53 28.996   -32 44 50.29   21270  26.2 21?? 124d 111
2018 11 14 07  20 16 12.055   -37 30 41.49   27438  67.3 17.4  88d  81
2018 11 14 08  22 08 43.013   -30 10 29.39   35180  91.6 16.7  68d  65
2018 11 14 09  23 09 58.493   -22 41 01.10   42705 107.1 16.6  56d  58
2018 11 14 10  23 49 07.756   -16 32 50.95   49581 118.1 16.6  49d  54
2018 11 14 11  00 17 23.631   -11 32 43.52   55740 126.6 16.6  44d  53